Wetbulb
53.04 53.98 54.04 55.01 55.67 55.25 54.61 54.28 53.81 53.48 52.79 52.08 52.10 51.83 51.20 50.06 50.18 47.54 44.36 45.57 45.71 43.65 45.43 46.53 47.55 45.21 46.20 46.56 44.79 48.37 49.86 51.74 52.25 48.98 46.72 46.23 45.71 48.56 48.01 48.72 48.78 48.27 47.60 46.32 44.78 43.46 41.48 55.34 54.19 52.12 54.55 56.77 56.60 58.18
52.36 53.39 54.14 54.65 55.07 54.95 54.47 54.04 53.56 53.16 52.80 52.48 52.35 51.96 51.31 49.95 49.57 45.75 41.53 46.07 46.85 44.14 46.78 47.65 49.90 50.99 50.06 49.00 46.07 48.46 49.62 49.49 51.58 50.81 49.71 50.32 49.61 50.23 48.61 46.38 51.16 48.68 51.41 51.01 51.14 49.66 54.64 56.88 54.74 55.83 56.02 55.01 56.12 56.77
51.04 52.43 53.79 54.12 54.61 54.66 54.23 54.00 53.48 53.10 52.60 52.25 52.12 51.98 51.58 50.33 49.66 47.59 43.74 44.21 46.16 45.00 46.85 46.96 47.18 48.89 50.57 50.42 50.94 47.24 49.83 51.67 52.09 51.95 52.02 51.81 48.90 51.50 47.90 47.99 49.85 52.57 53.35 52.23 50.31 53.24 54.69 55.92 56.91 56.87 56.76 56.08 57.73 58.66
50.23 51.91 53.10 53.81 54.11 54.16 53.91 53.91 53.42 53.09 52.71 52.15 52.19 51.98 51.56 50.85 50.17 48.25 43.32 43.90 43.27 46.02 42.28 46.24 51.94 51.19 52.72 49.65 50.68 51.25 52.50 51.69 52.66 52.55 51.07 49.82 49.59 52.11 50.38 50.13 50.27 52.24 52.61 51.92 49.64 52.40 53.95 55.68 56.89 57.09 56.62 57.82 57.77 58.71
50.06 50.73 52.08 53.18 53.87 53.94 53.93 53.66 53.20 52.84 52.75 52.22 52.01 52.10 51.82 51.16 50.22 48.62 46.05 45.57 44.76 45.68 42.60 44.71 49.14 51.05 51.46 50.39 52.12 52.33 52.67 52.65 52.06 50.45 50.51 49.34 50.82 51.40 51.98 52.05 50.56 53.75 51.19 48.96 47.13 52.43 54.75 54.37 56.30 57.55 56.54 56.46 57.93 58.63
49.62 50.58 51.65 52.77 53.47 53.88 53.93 53.45 52.94 52.85 52.55 52.46 52.26 52.03 51.48 50.44 47.25 41.95 43.30 45.31 44.34 46.54 44.57 41.98 48.63 49.89 51.12 51.76 51.54 51.31 52.16 51.54 52.12 51.16 49.91 50.36 50.62 50.99 49.23 48.61 53.31 54.69 55.08 53.96 53.46 56.10 56.61 58.00 58.39 58.05 57.32 57.84 58.28 59.47
48.81 49.45 51.45 52.40 53.37 53.56 53.59 53.07 52.78 52.53 52.27 52.12 51.70 51.20 50.62 49.62 47.16 40.49 42.79 46.24 45.42 47.58 44.52 41.34 45.54 49.52 49.39 49.90 49.74 50.02 49.78 49.69 50.11 48.82 49.32 51.44 51.44 51.34 49.78 47.20 53.92 55.29 55.98 56.49 56.72 56.84 55.03 55.92 55.56 57.04 57.36 57.72 57.51 60.26
49.00 49.05 51.02 52.08 53.09 53.42 53.01 52.71 52.38 52.15 51.81 51.53 50.90 50.35 49.85 49.54 47.73 43.55 45.60 47.70 46.62 43.06 46.66 43.19 44.24 46.97 49.72 48.70 48.25 48.64 49.34 49.75 48.70 48.14 48.18 50.34 50.25 50.44 46.92 48.45 51.01 54.50 55.57 55.86 56.86 58.46 58.06 58.39 57.89 57.62 58.32 58.50 58.62 58.53
48.75 49.29 50.74 52.15 52.87 53.02 52.85 52.41 52.25 51.70 51.38 50.92 50.41 49.81 47.06 44.07 39.92 41.93 49.87 50.16 46.15 45.81 44.18 43.92 42.38 43.92 49.93 48.12 49.54 50.14 49.39 46.94 48.49 48.15 47.66 48.45 48.13 45.77 47.62 50.24 51.65 52.41 53.57 55.08 55.78 54.60 55.69 55.98 56.58 57.10 58.45 58.28 57.50 58.45
48.11 49.02 50.56 52.22 52.76 52.80 52.45 52.30 51.72 50.76 50.32 49.95 45.09 41.52 38.29 42.07 47.64 49.54 46.32 44.23 43.37 45.53 45.57 43.10 46.50 45.68 48.77 48.34 48.58 49.62 49.55 47.70 45.38 47.51 48.74 46.72 46.38 49.76 51.65 52.82 53.08 52.50 52.98 53.26 53.24 54.44 56.26 56.48 57.15 57.22 57.30 57.86 57.92 58.43
46.97 48.79 50.49 52.53 52.70 52.55 52.17 51.70 50.50 49.47 47.17 43.47 39.19 39.30 47.12 50.99 47.15 43.76 40.51 39.54 40.24 39.64 42.80 44.99 45.56 45.79 48.03 47.51 47.51 48.68 47.36 46.53 43.79 45.90 46.47 45.31 45.81 49.82 52.34 53.50 54.58 54.28 54.19 54.89 55.46 58.11 58.25 57.86 57.04 57.41 57.57 57.75 58.24 58.41
46.19 48.45 49.37 52.42 52.38 52.07 51.42 50.10 48.87 46.41 44.56 43.84 43.21 46.46 47.64 46.22 43.23 39.62 40.63 41.96 39.45 37.62 42.00 42.71 45.34 46.56 47.17 50.09 49.19 47.95 46.16 46.08 40.91 49.10 46.04 43.74 49.05 50.01 51.67 52.70 54.78 56.09 56.41 56.22 57.85 57.65 57.41 57.18 58.26 58.18 57.96 57.07 57.37 56.93
45.73 48.12 48.76 51.96 52.05 51.43 50.38 49.24 47.83 47.41 47.78 47.47 44.22 42.94 42.39 41.14 35.84 36.66 35.93 38.99 39.71 43.41 43.16 42.34 42.57 45.78 47.64 50.41 47.99 48.23 43.96 43.42 48.72 45.17 43.69 47.30 49.59 50.71 51.91 53.67 54.73 56.18 56.70 56.70 56.50 57.12 57.61 57.96 58.52 58.45 57.92 58.28 57.67 55.46
45.37 47.57 48.64 51.52 51.58 50.82 49.79 48.52 48.39 47.39 46.54 42.83 41.91 36.08 37.62 36.52 38.19 40.97 41.96 42.72 45.65 44.40 43.45 44.01 44.44 45.33 46.15 46.93 47.50 43.40 45.64 47.20 41.96 39.82 41.48 48.39 50.34 51.26 52.86 54.36 54.50 53.80 54.77 55.50 55.83 56.55 56.92 57.05 57.02 57.09 56.77 56.72 56.23 55.51
45.37 47.39 48.34 51.12 50.95 50.03 48.91 48.70 48.28 47.21 44.78 42.18 42.35 35.35 37.63 42.02 43.67 44.29 45.31 44.31 44.68 45.67 44.37 44.81 45.36 46.81 45.93 45.28 45.98 44.80 42.71 40.56 42.89 43.20 47.54 50.85 50.77 52.20 53.99 54.61 54.43 53.55 52.81 52.41 53.47 54.84 55.30 56.29 56.14 55.33 55.79 55.65 54.82 53.96
45.84 47.64 47.31 51.20 50.34 49.06 48.22 47.34 47.60 47.46 44.71 42.72 42.53 41.05 43.64 41.00 42.24 42.82 43.62 43.67 45.90 45.69 47.08 47.41 44.71 44.66 43.60 45.14 42.69 40.92 40.30 39.43 44.99 48.71 50.73 52.32 52.01 53.00 54.31 54.68 53.05 53.04 53.14 53.54 54.18 54.72 55.77 56.11 55.74 55.38 54.76 54.25 53.74 53.34
46.75 44.41 48.57 50.49 49.29 47.98 47.68 45.74 46.26 42.03 42.19 42.34 42.06 45.22 43.97 43.69 42.89 44.63 44.50 45.41 47.29 47.43 45.70 45.83 42.96 41.48 44.85 43.60 42.56 46.28 44.82 47.67 49.01 50.28 51.60 53.72 54.07 54.28 54.64 54.76 53.61 52.39 52.77 54.37 55.29 56.09 56.20 56.25 56.12 54.37 52.98 53.25 53.38 53.33
44.04 47.37 50.15 48.50 47.27 46.93 46.38 47.33 44.08 41.44 38.89 42.10 40.97 43.61 44.09 45.11 45.44 46.77 47.73 47.76 48.66 47.69 47.66 46.70 47.05 44.33 43.10 41.31 43.89 47.72 49.38 50.46 51.79 52.36 52.70 53.26 53.66 54.54 55.12 54.87 54.18 54.67 54.58 54.06 54.57 55.58 56.39 55.94 52.85 52.51 53.58 52.91 53.26 52.93
46.86 49.31 48.73 48.14 47.29 46.54 42.31 42.86 43.52 38.44 40.94 43.76 45.17 45.79 45.69 47.57 48.85 47.53 48.11 49.24 49.76 50.34 49.13 48.10 45.55 44.43 45.69 47.82 48.47 48.78 49.24 50.23 50.59 51.39 52.97 53.56 54.41 55.17 55.03 54.07 54.45 54.82 54.75 54.39 54.48 55.28 55.26 54.91 54.51 53.53 52.36 53.86 52.37 52.62
48.70 48.65 48.27 49.09 49.20 44.74 40.18 40.95 44.45 41.42 41.18 44.37 45.56 45.41 46.41 47.56 47.94 49.12 48.78 48.79 49.69 49.69 47.47 46.14 46.75 48.59 49.39 49.80 50.82 51.41 51.85 52.12 52.57 52.18 52.88 53.82 53.31 54.02 54.79 54.62 55.01 54.81 55.17 54.68 55.24 48.15 54.88 52.96 55.11 54.96 52.73 53.66 52.86 52.12
47.03 47.17 48.80 48.89 47.21 44.56 43.08 42.52 43.33 44.18 44.44 43.10 46.15 45.77 46.28 47.66 47.36 47.81 47.43 49.11 49.02 46.63 46.81 48.68 49.18 49.08 50.04 51.03 52.77 53.39 52.70 53.02 52.79 52.96 52.39 52.61 53.34 53.81 54.44 54.62 54.60 54.65 54.72 54.48 54.69 52.60 49.00 53.76 54.68 56.66 55.79 54.38 54.64 54.78
46.24 48.69 46.76 46.64 42.88 43.00 43.62 47.17 44.27 45.03 43.94 45.33 45.05 45.88 44.92 44.76 46.05 46.22 46.89 48.51 47.75 48.59 49.33 50.68 50.42 51.23 51.42 52.06 52.73 53.64 53.69 52.93 52.97 51.77 47.18 48.69 52.67 53.12 53.92 54.38 54.03 53.49 53.78 54.77 55.11 55.73 53.65 53.54 54.63 54.74 55.51 55.66 52.92 55.22
48.02 46.71 44.98 44.02 41.68 41.72 41.22 47.43 42.81 44.32 41.11 42.96 45.05 44.25 44.67 45.89 46.37 48.11 45.54 46.99 49.11 50.56 50.99 51.52 51.26 51.56 53.24 53.56 53.51 53.28 53.44 53.95 54.23 54.27 54.18 54.01 53.24 53.34 54.01 54.12 54.22 53.97 54.32 54.30 55.06 55.30 54.06 49.51 51.82 54.38 55.48 55.10 55.37 55.10
47.26 43.81 42.16 42.43 42.13 39.43 44.94 42.89 45.40 44.22 44.94 43.36 43.08 42.21 43.93 45.49 46.53 46.10 44.17 47.26 49.41 50.48 51.68 51.56 52.36 52.30 52.88 53.20 53.54 53.54 54.15 54.73 54.77 54.35 53.89 53.34 53.45 54.21 54.02 54.15 53.12 52.93 55.04 56.00 54.64 54.95 54.22 52.95 50.86 55.36 55.87 55.41 55.03 54.77
38.49 38.46 41.96 37.45 42.60 40.97 40.85 41.58 41.86 43.08 41.37 42.19 41.56 42.26 43.78 45.37 42.70 42.76 43.60 47.36 49.64 51.10 51.43 52.31 52.35 52.14 51.61 52.18 52.69 53.32 53.93 54.09 53.59 52.79 54.10 54.17 54.32 53.88 54.27 52.71 53.10 54.60 55.47 53.19 51.87 51.18 54.40 55.55 54.85 54.45 53.37 54.01 53.98 54.11
35.42 39.86 38.43 40.83 41.35 41.17 41.21 39.50 41.09 41.46 42.30 41.67 42.33 44.59 45.41 43.95 40.76 39.69 45.53 49.32 50.78 51.91 52.17 51.96 51.74 52.38 52.19 51.93 51.52 52.88 53.71 54.91 54.54 52.56 54.35 54.46 53.17 51.40 52.23 52.60 52.67 53.15 55.77 55.23 55.32 52.06 52.14 53.81 53.81 53.31 53.34 52.68 45.44 50.40
36.99 39.50 42.36 43.66 43.33 43.27 42.22 42.88 43.99 43.01 40.66 40.49 42.05 42.05 42.43 39.10 39.70 45.95 50.33 51.54 52.06 52.89 53.42 53.57 53.44 53.22 52.68 53.10 54.03 54.40 54.91 55.08 54.91 53.91 55.14 55.93 56.01 55.27 54.58 53.35 52.91 55.45 55.89 55.80 54.46 54.10 54.01 54.18 54.20 54.70 54.05 54.69 54.80 54.58
41.05 41.61 39.74 42.28 44.63 45.40 42.73 43.07 42.44 41.74 43.11 44.69 44.70 42.43 41.16 41.42 43.23 49.88 51.30 52.29 52.99 53.08 53.36 53.83 53.84 53.69 53.53 54.06 55.02 54.95 54.72 55.28 55.36 54.72 54.79 55.25 55.86 55.92 56.51 56.59 56.75 46.78 55.15 56.60 56.29 56.27 54.85 54.36 54.98 55.13 54.47 54.37 54.98 55.83
41.84 43.13 44.06 42.45 43.83 44.49 42.71 43.50 43.93 46.11 46.98 45.93 44.37 43.81 45.34 49.13 50.98 51.73 52.10 52.69 52.89 53.08 52.13 51.88 52.88 53.30 53.83 54.74 55.04 55.10 54.34 53.67 52.20 50.87 50.55 51.29 53.08 53.89 54.65 55.38 55.87 56.89 57.01 56.63 44.28 49.04 54.38 54.01 54.65 54.96 55.39 55.09 55.51 56.15
42.83 44.31 43.68 43.49 42.04 41.73 44.98 47.16 47.24 48.81 48.98 48.31 48.22 47.76 48.04 49.60 51.51 52.33 52.44 52.47 51.98 51.72 51.94 52.17 50.92 51.44 51.46 52.33 52.81 53.49 54.97 54.75 54.24 52.77 51.44 52.03 53.33 56.00 56.52 55.95 55.45 56.41 56.83 56.51 55.98 56.18 43.95 47.48 48.35 51.03 50.94 53.15 53.61 53.65
44.94 44.98 43.06 44.21 43.49 46.12 47.38 48.45 48.99 48.95 49.05 48.73 48.81 47.43 47.22 49.09 51.62 52.59 53.01 53.44 53.44 53.28 52.04 52.17 52.83 53.60 53.51 52.98 52.91 52.73 52.37 55.43 55.17 55.23 55.34 55.73 56.17 56.78 56.75 54.71 54.65 55.75 55.93 55.53 55.32 55.10 54.95 54.11 53.96 52.97 52.09 51.90 52.98 51.06
44.33 42.63 42.50 40.77 43.54 47.10 48.30 47.48 46.88 47.14 48.19 47.69 47.62 48.85 48.97 48.12 46.78 50.04 53.11 53.04 52.76 52.36 49.99 51.52 52.26 52.91 54.59 54.44 54.39 54.81 47.17 55.64 56.27 56.72 56.71 56.77 57.08 57.62 56.54 54.19 53.48 53.60 53.73 53.18 53.37 53.76 54.50 53.93 53.63 53.06 52.54 53.34 54.21 53.46
44.16 44.99 44.51 44.70 44.98 45.15 45.82 46.88 47.01 46.80 47.56 47.45 47.71 48.62 48.88 48.47 46.45 51.28 55.12 55.15 54.67 54.34 54.21 54.76 55.36 55.57 55.95 56.10 55.84 56.49 51.01 57.18 54.11 45.00 42.55 41.36 40.19 45.15 52.71 54.40 53.55 53.22 52.54 51.81 51.65 51.88 52.24 53.00 53.48 53.78 54.06 54.24 54.28 54.09
MSLP
1015.83 1015.50 1015.36 1015.43 1015.65 1015.95 1016.36 1016.87 1017.52 1018.17 1018.65 1019.11 1019.38 1019.65 1019.80 1019.92 1019.91 1019.99 1019.63 1019.66 1019.14 1017.97 1015.54 1014.42 1013.62 1013.08 1012.41 1011.99 1011.47 1010.98 1010.83 1010.09 1009.65 1009.47 1009.44 1009.49 1009.36 1009.55 1009.54 1009.89 1009.81 1009.52 1009.39 1009.08 1009.23 1009.04 1009.46 1010.09 1010.11 1010.68 1011.14 1010.77 1010.91 1010.74
1015.40 1015.18 1014.91 1014.90 1015.14 1015.44 1015.91 1016.41 1017.04 1017.71 1018.26 1018.70 1019.06 1019.38 1019.59 1019.80 1019.79 1019.90 1019.67 1019.37 1019.41 1018.67 1015.95 1014.77 1013.68 1013.06 1012.74 1012.33 1012.34 1011.71 1011.47 1011.12 1010.85 1010.30 1010.41 1010.18 1009.97 1010.16 1010.18 1010.04 1010.55 1010.55 1010.46 1010.21 1010.40 1010.18 1010.46 1010.81 1011.17 1011.72 1012.02 1011.92 1011.49 1011.39
1015.19 1014.91 1014.68 1014.57 1014.71 1015.04 1015.40 1015.95 1016.58 1017.26 1017.88 1018.40 1018.83 1019.09 1019.34 1019.62 1019.72 1019.80 1019.78 1019.56 1019.08 1018.00 1015.61 1014.18 1012.59 1012.34 1012.30 1012.21 1012.02 1011.92 1011.76 1011.60 1011.35 1011.34 1010.73 1010.54 1010.30 1010.37 1010.13 1010.21 1010.42 1010.82 1011.12 1010.76 1010.80 1010.67 1010.73 1010.94 1011.41 1011.94 1012.17 1012.19 1011.94 1011.64
1014.96 1014.55 1014.32 1014.18 1014.35 1014.57 1014.96 1015.46 1016.14 1016.87 1017.53 1018.06 1018.48 1018.84 1019.07 1019.32 1019.48 1019.63 1019.74 1019.41 1019.30 1018.28 1016.50 1013.29 1012.25 1012.00 1011.78 1011.88 1011.91 1011.77 1011.67 1011.91 1011.81 1011.57 1011.00 1010.73 1010.49 1010.82 1010.52 1010.50 1010.43 1010.74 1011.04 1010.80 1010.74 1010.79 1011.01 1011.27 1011.54 1011.86 1012.09 1012.14 1011.86 1011.52
1014.61 1014.28 1014.00 1013.90 1013.97 1014.16 1014.49 1015.11 1015.80 1016.48 1017.23 1017.79 1018.21 1018.57 1018.86 1019.12 1019.25 1019.30 1019.34 1018.85 1018.93 1018.80 1016.70 1013.95 1012.51 1011.81 1011.54 1011.61 1011.49 1011.61 1011.66 1011.64 1011.55 1011.40 1011.05 1010.82 1011.03 1011.09 1010.98 1010.64 1010.56 1010.80 1010.76 1010.63 1010.59 1011.04 1011.19 1011.34 1011.78 1011.90 1011.94 1011.85 1011.68 1011.39
1014.42 1014.06 1013.72 1013.59 1013.58 1013.88 1014.18 1014.75 1015.48 1016.20 1016.88 1017.55 1018.04 1018.42 1018.70 1018.94 1019.05 1019.03 1018.69 1018.62 1018.88 1018.62 1017.40 1014.74 1012.78 1011.95 1011.55 1011.52 1011.52 1011.61 1011.64 1011.64 1011.51 1011.15 1011.13 1011.26 1011.53 1011.37 1010.71 1010.31 1010.50 1010.81 1010.97 1010.95 1011.19 1011.49 1011.54 1011.65 1011.78 1011.78 1011.84 1011.71 1011.54 1011.37
1014.23 1013.89 1013.45 1013.21 1013.15 1013.41 1013.87 1014.51 1015.22 1016.00 1016.70 1017.37 1017.91 1018.31 1018.60 1018.72 1018.75 1018.54 1018.44 1018.45 1018.60 1018.66 1017.39 1014.96 1012.81 1011.95 1011.78 1011.65 1011.75 1011.79 1011.95 1011.81 1011.69 1011.56 1011.40 1011.26 1011.49 1011.25 1010.92 1010.56 1010.58 1010.77 1011.09 1011.34 1011.57 1011.69 1011.46 1011.76 1011.84 1011.98 1011.90 1011.62 1011.54 1011.39
1013.86 1013.51 1013.08 1012.87 1012.80 1012.99 1013.51 1014.26 1015.02 1015.84 1016.54 1017.27 1017.81 1018.20 1018.41 1018.47 1018.42 1017.90 1017.24 1017.73 1018.23 1018.05 1017.21 1015.21 1012.83 1011.99 1011.70 1011.38 1011.64 1012.12 1011.71 1011.73 1011.86 1011.79 1011.90 1011.46 1011.80 1011.63 1011.16 1011.55 1011.47 1011.47 1011.52 1011.56 1011.47 1011.66 1011.70 1011.87 1011.91 1011.66 1011.66 1011.48 1011.29 1011.19
1013.47 1013.11 1012.69 1012.47 1012.42 1012.70 1013.30 1014.12 1014.95 1015.82 1016.61 1017.37 1017.86 1018.13 1018.37 1018.37 1017.82 1017.43 1017.11 1017.03 1018.01 1018.05 1016.35 1014.85 1012.89 1011.56 1011.52 1011.54 1011.64 1011.78 1011.74 1011.42 1012.10 1011.61 1011.83 1012.00 1011.65 1011.57 1012.14 1012.33 1012.16 1012.10 1012.02 1011.76 1011.53 1011.46 1011.42 1011.46 1011.41 1011.43 1011.30 1011.16 1010.96 1011.06
1013.09 1012.78 1012.35 1012.01 1012.08 1012.46 1013.17 1014.03 1014.97 1015.89 1016.79 1017.57 1017.97 1018.13 1017.56 1017.16 1017.09 1017.53 1017.27 1017.46 1017.59 1016.76 1016.18 1014.20 1012.89 1011.58 1011.37 1011.41 1011.56 1011.60 1011.57 1011.46 1011.36 1012.03 1012.13 1011.91 1011.85 1012.45 1012.70 1012.80 1012.71 1012.38 1012.11 1012.05 1011.59 1011.18 1011.22 1011.23 1011.43 1011.52 1011.49 1011.37 1011.12 1011.19
1012.69 1012.53 1012.10 1011.66 1011.82 1012.26 1013.06 1013.93 1014.97 1016.14 1017.17 1017.63 1017.59 1017.21 1016.93 1016.94 1017.08 1016.95 1016.59 1016.38 1015.81 1015.20 1014.35 1012.90 1012.21 1011.36 1011.50 1011.11 1011.16 1011.69 1011.28 1011.42 1011.18 1011.88 1011.78 1011.92 1012.04 1012.69 1013.00 1012.84 1012.66 1012.17 1011.96 1011.78 1011.79 1011.73 1011.74 1011.62 1011.73 1011.71 1011.67 1011.67 1011.64 1011.71
1012.32 1012.36 1011.94 1011.57 1011.72 1012.35 1013.14 1014.06 1015.02 1015.72 1016.32 1016.59 1016.72 1016.96 1016.80 1016.46 1016.29 1016.23 1015.34 1014.82 1014.31 1013.22 1012.76 1012.14 1011.62 1011.63 1011.63 1011.49 1011.00 1011.54 1011.06 1011.34 1011.24 1012.02 1011.78 1011.85 1012.77 1013.11 1013.27 1013.10 1012.76 1012.35 1011.97 1011.90 1011.95 1011.88 1012.02 1011.91 1011.96 1012.00 1012.11 1012.34 1012.31 1012.37
1012.16 1012.06 1011.82 1011.53 1011.88 1012.55 1013.39 1014.26 1015.02 1015.55 1016.00 1016.56 1016.75 1016.45 1015.85 1015.82 1015.50 1014.73 1013.63 1013.09 1012.57 1011.86 1011.67 1011.64 1011.52 1011.36 1011.75 1011.37 1011.12 1011.06 1010.86 1011.16 1011.76 1011.70 1011.85 1012.45 1013.09 1013.46 1013.54 1013.39 1013.01 1012.71 1012.43 1012.34 1012.35 1012.41 1012.24 1012.24 1012.33 1012.27 1012.39 1012.54 1012.69 1012.57
1011.94 1011.83 1011.68 1011.53 1011.99 1012.65 1013.54 1014.50 1015.11 1015.53 1015.74 1015.89 1015.59 1015.50 1014.85 1014.05 1013.22 1012.29 1011.67 1011.18 1011.01 1011.00 1011.08 1011.00 1011.12 1011.08 1011.08 1010.86 1010.89 1010.77 1011.40 1011.36 1011.54 1011.78 1011.95 1012.77 1013.28 1013.71 1013.78 1013.66 1013.39 1013.26 1013.09 1012.84 1012.73 1012.65 1012.57 1012.65 1012.86 1012.90 1012.86 1012.96 1013.04 1013.24
1011.60 1011.68 1011.65 1011.65 1012.08 1013.03 1013.90 1014.69 1015.31 1015.55 1015.55 1015.28 1014.86 1014.14 1013.12 1012.11 1011.68 1011.36 1011.19 1011.12 1010.97 1010.94 1010.88 1010.86 1010.84 1010.73 1010.70 1010.76 1010.95 1011.13 1011.34 1011.22 1011.56 1011.79 1012.39 1013.05 1013.70 1013.93 1013.92 1013.99 1013.98 1014.00 1013.93 1013.70 1013.60 1013.11 1013.09 1013.14 1013.38 1013.57 1013.62 1013.77 1013.91 1014.02
1011.38 1011.52 1011.51 1011.51 1012.16 1013.13 1014.36 1015.19 1015.60 1015.85 1015.74 1015.26 1014.46 1013.10 1012.06 1011.74 1011.07 1010.93 1010.78 1010.58 1010.60 1010.59 1010.69 1010.40 1010.25 1010.46 1010.66 1010.53 1010.63 1010.66 1010.91 1011.15 1011.70 1012.22 1012.80 1013.46 1013.81 1013.98 1014.11 1014.34 1014.48 1014.50 1014.46 1014.27 1014.11 1013.76 1013.48 1013.36 1013.63 1013.94 1014.17 1014.24 1014.31 1014.39
1011.13 1011.11 1011.06 1011.47 1012.59 1013.70 1014.43 1015.09 1015.61 1015.91 1015.34 1014.21 1012.95 1012.16 1011.92 1011.46 1010.93 1010.40 1010.15 1010.03 1010.23 1010.32 1009.88 1009.84 1010.04 1010.62 1010.84 1010.61 1010.68 1011.04 1011.18 1011.69 1012.16 1012.56 1013.18 1013.50 1013.58 1013.79 1014.02 1014.25 1014.38 1014.44 1014.25 1014.18 1014.12 1013.94 1013.81 1013.80 1014.00 1014.23 1014.41 1014.68 1014.79 1014.91
1010.75 1011.06 1011.34 1011.74 1013.18 1014.33 1014.95 1015.05 1015.16 1015.24 1014.40 1013.23 1012.57 1011.83 1011.56 1011.07 1010.56 1010.13 1009.84 1009.84 1009.83 1009.68 1009.71 1009.76 1010.17 1010.54 1010.61 1010.78 1010.97 1011.39 1011.93 1012.54 1012.84 1012.90 1013.23 1013.50 1013.65 1013.77 1013.89 1014.02 1014.35 1014.42 1014.50 1014.50 1014.35 1014.17 1014.04 1014.03 1014.27 1014.52 1014.76 1014.97 1014.91 1015.01
1010.34 1010.62 1011.61 1012.00 1012.87 1013.92 1014.70 1015.31 1015.24 1014.59 1013.27 1012.65 1012.18 1011.71 1011.26 1010.77 1010.37 1010.13 1009.77 1009.72 1009.69 1009.40 1009.46 1009.84 1010.22 1010.72 1011.02 1011.31 1011.36 1011.86 1012.36 1012.60 1012.87 1013.18 1013.41 1013.63 1013.74 1013.78 1013.93 1014.17 1014.36 1014.43 1014.41 1014.42 1014.31 1014.16 1014.21 1014.24 1014.29 1014.48 1014.68 1014.65 1014.46 1014.70
1010.54 1011.34 1011.81 1012.17 1012.65 1013.73 1014.48 1014.83 1015.01 1014.15 1012.64 1012.29 1011.71 1011.45 1011.25 1010.79 1010.46 1010.11 1009.84 1009.72 1009.39 1009.32 1009.76 1010.37 1010.90 1011.33 1011.46 1011.88 1012.20 1012.31 1012.60 1012.91 1012.91 1012.97 1013.15 1013.46 1013.64 1013.72 1013.84 1013.99 1014.06 1014.31 1014.33 1014.34 1014.31 1014.58 1014.39 1014.53 1014.41 1014.37 1014.57 1014.33 1014.36 1014.44
1011.61 1012.32 1012.58 1012.87 1013.33 1013.49 1013.51 1013.41 1013.34 1012.92 1012.38 1012.43 1011.82 1011.75 1011.35 1010.87 1010.51 1010.27 1009.75 1009.47 1009.49 1010.51 1010.91 1011.47 1011.72 1012.17 1012.48 1012.55 1012.63 1012.82 1013.02 1012.94 1012.81 1012.77 1012.95 1012.99 1013.39 1013.54 1013.66 1013.84 1014.02 1014.11 1014.06 1013.95 1013.97 1014.13 1014.18 1014.22 1014.28 1014.05 1014.16 1014.23 1014.21 1014.25
1012.04 1012.61 1013.19 1013.53 1013.24 1013.10 1012.98 1012.66 1012.42 1012.48 1012.40 1011.69 1011.56 1011.35 1011.05 1010.66 1010.40 1010.45 1010.51 1010.10 1011.15 1011.88 1011.96 1012.06 1012.43 1012.54 1012.63 1012.86 1013.00 1013.02 1013.04 1013.12 1013.18 1013.08 1013.15 1013.31 1013.24 1013.28 1013.40 1013.53 1013.72 1013.66 1013.71 1013.75 1013.75 1013.57 1013.85 1014.00 1014.12 1014.12 1013.91 1013.82 1014.08 1014.05
1012.38 1012.72 1012.78 1013.25 1012.93 1012.30 1012.34 1012.14 1011.74 1011.37 1011.38 1011.06 1010.89 1010.70 1010.85 1010.83 1010.93 1010.88 1011.18 1011.75 1012.09 1012.53 1012.63 1012.59 1012.66 1012.82 1012.85 1012.99 1012.97 1013.03 1013.09 1013.02 1012.84 1012.91 1013.04 1013.17 1013.28 1013.33 1013.43 1013.50 1013.57 1013.53 1013.45 1013.50 1013.58 1013.50 1013.67 1013.82 1013.93 1013.79 1013.73 1013.83 1013.62 1013.60
1012.93 1013.08 1012.69 1012.09 1011.69 1011.55 1011.38 1011.39 1011.15 1010.81 1010.44 1010.38 1010.51 1010.93 1011.20 1011.25 1011.13 1011.14 1011.70 1012.11 1012.51 1012.71 1012.62 1012.73 1012.71 1012.74 1012.87 1012.86 1012.72 1012.79 1012.89 1012.91 1012.87 1012.92 1012.96 1012.98 1012.95 1013.02 1013.08 1013.29 1013.36 1013.45 1013.19 1013.06 1013.22 1013.26 1013.52 1013.63 1013.47 1013.30 1013.11 1012.98 1012.96 1012.88
1012.17 1012.34 1011.87 1011.57 1011.18 1010.60 1010.01 1010.03 1010.06 1009.92 1010.54 1010.65 1010.84 1011.32 1011.45 1011.48 1011.46 1011.80 1012.02 1012.32 1012.61 1012.74 1012.80 1012.81 1012.62 1012.55 1012.52 1012.59 1012.62 1012.71 1012.92 1012.85 1012.74 1012.75 1012.71 1012.90 1012.79 1012.76 1012.81 1013.08 1012.94 1012.87 1013.03 1013.17 1013.22 1013.18 1012.87 1012.88 1012.89 1012.69 1012.73 1012.59 1012.35 1012.25
1012.12 1012.00 1011.91 1011.14 1010.80 1010.20 1010.14 1010.27 1010.52 1010.72 1010.77 1011.06 1011.36 1011.51 1011.45 1011.34 1011.64 1012.06 1012.34 1012.64 1012.72 1012.74 1012.67 1012.61 1012.57 1012.61 1012.63 1012.65 1012.47 1012.44 1012.65 1012.90 1012.89 1012.71 1012.54 1012.61 1012.69 1012.61 1012.34 1012.35 1012.29 1012.19 1012.31 1012.47 1012.45 1012.78 1012.76 1012.55 1012.43 1012.30 1012.02 1011.92 1011.96 1012.09
1011.91 1011.74 1011.44 1011.29 1010.85 1010.44 1010.64 1010.86 1010.89 1011.07 1011.33 1011.54 1011.59 1011.37 1011.33 1011.56 1011.92 1012.39 1012.67 1012.85 1012.65 1012.74 1012.84 1012.84 1012.78 1012.67 1012.55 1012.54 1012.62 1012.71 1012.79 1012.87 1012.82 1012.80 1012.71 1012.44 1012.28 1012.35 1012.24 1012.07 1011.87 1011.88 1012.03 1012.10 1012.29 1012.37 1012.25 1011.73 1011.68 1011.62 1011.43 1011.31 1011.15 1011.20
1012.13 1012.04 1011.59 1011.44 1011.06 1011.06 1011.31 1011.67 1011.87 1012.22 1012.19 1012.30 1012.06 1011.83 1011.83 1011.93 1012.32 1012.54 1012.68 1012.92 1012.96 1013.01 1012.99 1012.93 1012.92 1012.83 1012.70 1012.65 1012.70 1012.66 1012.63 1012.63 1012.57 1012.49 1012.28 1012.09 1012.05 1012.03 1011.99 1011.93 1011.85 1011.92 1011.93 1011.80 1011.69 1011.58 1011.47 1011.34 1011.18 1011.07 1011.00 1010.87 1010.71 1010.66
1012.40 1012.26 1011.84 1011.74 1011.81 1012.31 1012.90 1012.93 1012.95 1013.05 1013.20 1012.81 1012.44 1012.45 1012.54 1012.58 1012.75 1012.73 1012.95 1013.06 1013.23 1013.12 1012.89 1012.66 1012.59 1012.72 1012.62 1012.62 1012.62 1012.57 1012.50 1012.35 1012.21 1011.93 1011.73 1011.49 1011.36 1011.57 1011.66 1011.54 1011.29 1010.96 1010.88 1010.82 1011.03 1011.06 1010.87 1010.80 1010.74 1010.68 1010.49 1010.36 1010.17 1010.05
1012.90 1012.66 1012.31 1012.67 1012.90 1013.42 1013.79 1013.85 1013.63 1013.65 1013.48 1013.41 1013.27 1013.03 1013.01 1012.87 1013.05 1013.28 1013.20 1013.13 1013.06 1012.89 1012.78 1012.67 1012.71 1012.58 1012.36 1012.26 1012.14 1012.10 1012.01 1011.97 1011.89 1011.71 1011.48 1011.25 1010.95 1011.01 1010.86 1010.66 1010.46 1010.27 1010.20 1010.21 1010.09 1009.99 1010.43 1010.56 1010.51 1010.41 1010.35 1009.93 1009.78 1009.74
1013.36 1012.89 1013.13 1013.42 1013.68 1013.97 1014.07 1014.07 1013.94 1013.82 1013.65 1013.52 1013.52 1013.23 1013.20 1013.24 1013.12 1013.16 1013.11 1013.04 1012.92 1012.80 1012.62 1012.48 1012.29 1012.28 1012.35 1012.18 1012.08 1011.88 1011.52 1011.34 1011.52 1011.61 1011.55 1011.31 1011.05 1010.70 1010.47 1010.35 1010.22 1010.04 1009.88 1009.72 1009.59 1009.51 1009.56 1009.58 1009.63 1009.51 1009.33 1009.17 1009.02 1009.13
1013.88 1013.95 1013.79 1013.82 1014.03 1014.16 1014.04 1013.86 1013.72 1013.54 1013.50 1013.41 1013.34 1013.34 1013.26 1013.16 1012.94 1012.80 1012.95 1012.98 1012.82 1012.61 1012.54 1012.53 1012.30 1012.10 1012.10 1012.12 1012.07 1011.90 1011.87 1011.51 1011.30 1011.12 1011.06 1010.84 1010.54 1010.36 1010.25 1010.00 1009.85 1009.70 1009.44 1009.19 1009.08 1008.99 1008.99 1008.99 1008.88 1008.89 1008.66 1008.29 1007.99 1008.03
1014.36 1014.19 1014.17 1014.10 1014.11 1013.97 1013.97 1013.67 1013.35 1013.26 1013.22 1013.00 1013.04 1012.96 1012.91 1012.91 1012.77 1012.67 1012.71 1012.84 1012.74 1012.52 1012.24 1012.08 1012.03 1011.99 1012.04 1011.97 1011.73 1011.39 1011.30 1011.03 1010.85 1010.77 1010.65 1010.48 1010.36 1010.15 1010.02 1009.64 1009.37 1009.22 1009.06 1008.84 1008.64 1008.44 1008.25 1008.11 1007.95 1007.84 1007.77 1007.59 1007.45 1007.31
Wind_Speed
12 10 10 10 11 15 18 18 17 15 14 12 10 7 4 3 4 1 3 4 2 3 8 3 3 3 4 2 3 4 3 1 2 3 0 2 1 2 1 1 2 2 2 2 2 4 6 7 1 4 6 5 7 8
11 11 9 9 10 14 17 18 18 16 14 12 10 7 4 2 3 2 2 0 0 4 6 3 13 16 13 13 5 2 2 1 1 2 1 2 2 1 0 3 1 2 2 0 3 3 2 2 3 3 5 9 11 12
13 11 9 9 9 13 18 19 18 17 17 14 11 9 5 3 1 1 3 2 2 3 6 4 4 1 3 10 5 3 1 0 1 2 2 1 2 2 3 2 2 2 3 2 2 1 3 3 3 2 6 9 11 12
13 10 8 8 9 13 17 19 19 18 16 14 12 9 6 4 3 4 3 1 2 2 4 4 3 4 2 5 8 4 1 3 3 1 1 1 1 3 1 3 2 1 6 4 2 2 1 1 3 4 8 7 8 10
11 11 9 8 10 12 17 19 19 18 16 15 12 9 6 4 4 3 4 4 4 3 4 6 10 2 4 5 6 4 4 3 2 2 2 1 2 3 0 2 2 3 3 2 0 2 1 1 1 6 6 5 8 11
11 11 10 8 9 12 17 19 19 18 16 14 11 8 6 4 1 1 3 2 5 2 4 4 3 2 3 5 5 3 2 2 1 1 1 2 2 3 3 4 3 4 4 3 2 2 4 6 6 4 5 6 10 12
10 12 12 9 8 13 17 19 19 18 15 13 10 7 5 4 1 2 2 2 4 3 3 5 3 1 2 2 2 1 2 2 1 1 1 1 2 2 1 2 4 6 2 0 2 3 4 2 3 6 7 10 8 8
10 11 11 10 8 14 18 19 19 18 15 12 9 7 4 5 7 5 2 14 4 1 3 3 3 2 1 2 3 1 2 1 2 1 1 1 3 1 2 4 4 3 2 4 5 5 8 7 8 9 7 7 6 4
11 11 12 9 8 14 18 20 19 17 14 11 8 4 1 3 2 2 6 8 4 3 4 3 3 3 1 2 1 2 1 3 1 1 2 3 1 2 4 6 7 5 4 6 7 5 5 5 7 6 6 6 4 5
11 12 13 7 9 16 21 22 22 19 15 11 3 2 3 3 3 7 3 2 4 3 3 5 1 3 3 2 2 2 0 2 3 3 1 2 2 2 5 6 8 8 8 5 6 5 6 5 5 5 5 6 6 7
10 12 14 6 11 19 23 24 24 21 10 2 3 3 2 2 2 2 2 4 3 4 5 4 5 1 1 3 3 1 2 1 3 4 3 2 3 2 6 6 6 3 3 4 3 1 1 3 3 4 7 8 8 9
9 10 13 7 16 22 25 26 24 5 4 4 3 1 2 2 1 2 4 2 5 5 4 4 4 3 2 1 2 2 1 2 2 1 3 3 2 0 5 6 7 6 5 3 2 4 0 3 5 5 7 7 7 8
8 8 10 11 21 26 27 26 11 14 9 2 1 4 3 3 2 6 7 4 4 4 5 4 4 3 3 2 3 2 3 2 2 2 0 2 2 2 3 4 6 6 7 7 5 4 5 6 5 5 7 6 6 8
8 7 7 14 23 26 27 19 15 7 2 3 5 4 5 6 6 7 6 3 2 2 5 4 4 3 1 2 1 3 2 2 2 3 2 3 3 1 1 3 5 6 6 6 5 5 6 5 4 5 5 4 5 6
8 6 5 18 26 26 22 16 9 1 1 3 4 5 8 6 4 3 4 2 2 1 5 4 3 1 2 4 1 3 3 2 2 1 3 3 5 3 5 4 6 7 6 6 4 5 5 5 3 4 5 5 5 5
8 4 3 21 28 28 22 11 3 2 2 3 5 5 4 2 5 4 5 4 3 4 2 1 3 3 2 2 4 3 5 4 3 3 3 6 7 6 6 6 6 6 5 6 6 5 2 3 5 5 5 4 4 5
13 3 8 27 28 23 14 4 3 4 4 4 5 5 6 6 7 6 4 4 4 5 3 2 3 2 3 2 4 2 2 2 4 4 4 5 6 5 4 4 4 3 3 5 5 5 3 3 7 6 5 4 4 5
4 5 23 33 19 9 2 2 2 3 6 5 4 1 2 3 4 3 3 4 5 4 3 3 4 3 2 4 3 3 2 3 2 3 4 4 4 4 4 5 4 3 2 4 4 3 1 5 4 3 5 4 5 5
7 13 31 30 14 5 3 4 2 4 8 3 3 2 2 3 3 3 2 4 1 2 6 2 4 2 2 1 2 3 3 3 3 3 3 4 3 4 4 4 3 2 2 3 3 1 1 4 3 4 4 4 3 4
22 30 29 15 4 4 3 2 2 5 3 1 0 2 3 1 3 1 3 2 2 2 4 3 2 2 2 2 1 2 3 3 3 3 3 3 4 5 5 4 3 2 1 3 3 2 3 3 4 5 4 4 4 5
23 13 12 4 2 1 2 4 5 2 0 2 2 2 2 2 1 1 2 3 5 3 3 2 3 3 3 4 3 3 4 3 2 2 2 2 2 3 4 4 4 3 3 3 3 3 3 2 5 6 6 5 4 4
5 12 3 2 0 3 3 2 2 1 4 2 2 2 1 1 3 5 4 5 4 3 3 2 3 3 4 3 3 2 3 3 3 3 2 1 2 2 3 4 4 3 3 3 4 4 3 3 3 4 5 5 5 5
8 1 3 1 3 4 2 1 0 2 4 4 2 2 3 3 3 3 4 3 3 3 2 2 3 2 3 3 4 3 2 1 1 2 1 1 1 2 2 3 3 3 3 3 4 4 3 3 5 5 4 5 5 5
5 6 6 2 3 5 5 6 4 3 2 3 3 3 3 3 3 4 4 2 2 1 1 3 3 4 3 2 1 1 1 1 1 2 2 2 2 2 2 2 2 3 4 2 3 3 4 4 5 6 6 6 6 6
4 5 3 3 1 3 2 4 4 5 5 4 4 3 2 1 3 3 2 3 1 2 2 2 3 3 3 2 1 1 1 2 3 3 1 3 2 2 2 2 3 3 2 3 3 3 5 6 6 6 6 7 8 8
3 3 2 2 2 3 3 4 4 4 3 3 3 1 0 2 3 2 1 1 1 1 2 3 3 2 2 2 3 2 3 0 1 2 1 3 2 2 2 2 1 3 5 5 2 2 3 5 5 7 6 7 7 6
4 4 2 0 2 2 5 4 3 5 5 4 2 2 2 3 3 2 1 2 1 2 1 1 1 1 3 3 2 2 2 2 2 2 3 2 3 3 3 2 2 2 3 4 5 6 9 7 6 7 7 6 5 6
3 5 5 5 5 5 5 4 5 5 4 3 1 4 2 3 3 2 2 2 1 1 2 2 2 3 3 3 2 2 2 2 3 4 3 4 4 4 5 5 6 7 7 7 7 7 7 7 8 8 8 8 8 6
4 5 2 7 6 7 6 5 4 3 3 3 2 3 3 2 2 1 1 1 1 2 3 4 3 2 2 2 2 2 3 3 3 2 4 4 2 2 3 3 6 5 5 6 10 10 9 8 7 7 9 8 8 7
6 5 4 5 5 5 4 3 2 3 2 3 2 1 1 0 1 1 1 2 2 3 3 2 1 2 3 1 3 3 4 4 5 5 5 6 5 4 6 6 6 5 5 6 7 8 9 8 6 6 6 6 5 5
4 3 5 4 4 2 3 3 1 1 1 1 2 2 3 3 2 0 2 1 1 1 2 2 3 2 1 0 1 2 4 3 4 6 7 6 7 7 6 5 4 4 4 4 5 7 8 8 8 8 8 8 7 8
4 5 2 3 3 3 2 2 1 2 2 2 2 1 0 0 3 2 1 1 2 2 2 3 3 2 2 4 4 5 8 7 7 7 9 7 7 7 5 5 4 4 5 6 6 6 7 9 8 9 11 16 14 12
2 2 3 2 1 2 3 3 2 2 2 3 5 4 3 3 4 2 0 3 4 5 5 5 4 4 6 7 8 7 7 6 9 10 11 11 12 11 7 6 5 5 6 7 8 8 9 10 9 10 11 13 15 15
Wind_Direction
307 293 253 244 222 210 197 190 190 192 199 207 212 218 236 303 348 46 294 214 270 275 284 247 292 334 340 350 346 353 232 31 56 78 119 114 231 87 156 48 349 329 268 179 159 213 215 18 200 283 10 339 333 341
317 313 264 237 228 209 197 189 187 189 190 198 206 213 217 263 349 97 284 29 241 239 283 282 269 263 251 258 274 330 17 337 37 113 154 143 158 169 132 181 116 209 317 114 271 53 38 22 59 59 352 310 311 309
319 319 295 250 232 210 196 189 185 184 188 192 201 212 209 215 229 108 291 309 252 284 279 272 262 74 229 228 223 293 190 256 170 342 121 95 186 207 176 141 138 150 164 180 227 133 281 278 205 282 313 306 313 307
314 304 304 260 238 215 197 187 183 182 184 191 197 204 203 206 219 178 271 146 276 297 284 288 323 297 285 193 200 225 175 97 86 244 147 186 214 223 136 80 269 63 171 157 237 232 286 121 225 298 319 322 339 340
318 312 310 279 240 215 193 185 180 179 181 187 191 200 196 207 241 229 235 229 248 277 304 294 307 282 290 193 182 155 171 155 185 194 193 149 118 171 263 117 226 184 142 228 85 131 273 321 222 308 304 338 339 337
327 312 304 284 243 213 191 180 177 175 178 182 188 188 188 201 323 246 273 152 205 216 278 289 349 293 22 147 140 125 85 86 48 276 93 119 70 267 185 191 144 187 205 226 19 47 275 307 310 307 297 312 333 331
324 315 306 291 245 203 187 178 172 170 172 171 174 184 186 198 203 199 310 22 152 179 257 288 287 119 323 130 76 104 48 70 336 109 174 146 138 272 191 183 158 200 218 216 227 268 273 170 351 326 298 302 312 323
307 316 303 288 253 198 181 173 167 162 159 158 164 172 199 260 258 276 252 192 153 269 256 273 268 239 53 171 173 351 160 170 46 66 159 92 150 267 217 50 345 305 293 273 259 242 287 298 283 289 301 296 298 355
305 312 314 281 240 189 172 160 152 147 141 143 151 128 175 224 213 320 10 142 171 294 290 238 250 161 155 102 71 146 293 176 59 157 90 255 146 206 38 335 312 313 299 322 333 311 301 300 315 324 335 351 347 42
307 314 317 273 212 176 162 150 140 132 127 123 105 192 207 203 156 137 250 149 182 201 229 254 242 196 213 134 109 190 10 120 173 81 185 255 134 27 6 330 298 288 257 277 294 337 348 26 52 38 26 29 50 70
303 311 319 253 186 163 153 143 132 121 110 119 172 221 63 148 157 199 241 219 168 224 202 238 221 170 170 174 144 272 145 131 188 110 265 170 167 60 0 8 359 9 198 215 218 336 54 82 76 78 94 77 74 70
291 306 329 211 162 150 140 135 138 121 154 162 143 95 203 189 140 238 223 196 215 236 191 198 177 207 149 211 161 169 126 182 139 98 223 190 131 321 1 18 22 29 46 93 146 171 117 82 116 97 82 77 79 88
275 298 322 181 153 145 143 144 131 121 122 113 189 189 191 156 202 217 198 201 223 202 183 179 158 169 159 196 91 180 157 119 153 204 217 82 168 260 14 18 49 50 72 84 83 75 102 98 121 117 114 109 101 77
257 277 302 173 155 150 146 139 136 137 128 180 186 157 214 194 227 200 215 201 218 208 166 161 118 196 143 120 126 140 78 177 146 214 168 157 186 100 53 53 71 47 42 67 81 88 89 97 110 104 88 76 84 74
232 248 286 167 147 141 141 133 142 44 134 216 175 218 211 238 263 248 250 263 189 182 156 140 114 188 90 116 55 123 149 194 223 160 143 150 154 133 91 74 59 35 15 16 360 71 86 104 121 98 82 80 77 82
207 175 224 161 143 136 133 124 76 52 316 239 232 252 222 248 242 227 219 242 170 158 175 215 128 104 100 134 164 168 163 197 145 155 139 153 165 150 112 82 80 50 21 349 340 350 27 131 150 125 109 86 73 70
176 194 178 145 134 133 116 102 134 179 259 228 232 231 256 279 265 255 202 204 148 172 193 172 99 88 128 136 153 185 173 102 140 142 151 172 163 154 141 142 126 141 253 284 315 332 314 142 141 146 142 125 94 86
170 176 150 126 119 102 33 49 127 202 240 240 249 228 220 249 278 243 203 165 172 164 173 102 132 141 131 154 175 151 126 122 118 132 151 169 178 165 163 148 146 145 210 250 273 313 197 154 150 157 146 136 133 120
169 154 143 133 129 128 131 164 122 255 232 258 254 239 270 273 263 272 230 161 227 160 121 92 84 105 138 182 123 131 150 168 158 163 172 181 195 172 164 157 160 197 249 235 257 271 230 229 204 174 161 171 138 128
146 142 141 130 90 103 124 147 170 256 260 280 328 356 303 313 339 23 104 168 147 89 62 52 74 94 95 118 127 107 119 144 155 151 158 177 195 193 203 203 190 178 205 199 228 257 184 187 178 185 174 186 161 138
125 140 120 98 62 81 238 170 193 226 31 348 28 246 290 318 353 212 68 345 63 37 80 58 84 84 93 101 102 109 130 153 108 60 90 96 146 208 192 182 179 186 212 217 206 196 213 220 196 185 175 185 192 174
96 149 105 23 72 188 215 194 80 109 210 121 226 197 226 74 26 24 323 55 56 34 29 87 124 121 114 146 166 177 118 133 131 114 125 135 222 204 201 196 195 203 222 219 241 239 156 188 191 199 195 186 199 189
104 101 72 170 243 42 295 114 63 190 174 188 179 88 41 50 31 308 72 50 66 39 21 82 115 125 137 136 140 132 157 183 81 48 38 337 290 249 219 199 214 218 218 195 231 241 166 189 194 207 177 197 208 214
80 157 211 181 203 199 178 187 203 190 143 55 60 68 41 27 348 58 76 72 60 350 102 118 163 148 144 143 206 244 227 261 320 322 285 267 265 252 238 240 222 222 234 196 232 238 153 196 200 204 216 233 239 249
18 23 52 292 261 287 74 51 37 61 63 41 71 71 56 343 71 66 86 117 108 120 105 121 89 52 35 14 333 325 216 269 318 325 306 216 243 259 239 213 245 242 173 196 224 215 197 186 205 219 229 239 251 249
78 53 112 318 0 43 28 68 58 72 86 72 67 79 185 89 77 83 77 79 139 128 90 60 46 36 31 336 327 348 9 83 248 279 273 208 213 216 160 178 165 187 199 218 193 182 241 227 229 237 236 260 241 247
57 20 7 23 322 102 82 64 64 59 54 48 29 44 63 71 68 76 105 188 100 98 58 18 307 334 347 340 329 287 259 206 249 335 326 296 247 238 258 282 303 68 150 188 199 206 226 242 256 253 249 245 233 235
53 24 43 351 53 30 72 52 43 37 30 2 285 40 58 43 54 45 53 73 39 13 315 289 276 292 292 287 315 295 250 238 272 282 269 250 243 244 247 260 258 225 245 245 243 235 236 240 238 240 234 249 259 251
36 352 349 45 57 52 39 35 51 40 354 319 31 52 54 41 20 21 88 95 14 307 323 336 23 348 280 257 261 257 251 252 268 273 339 334 312 236 208 234 262 252 239 241 207 225 236 244 252 246 246 254 261 261
21 347 74 49 53 56 41 5 39 8 8 13 357 255 217 187 25 347 259 245 274 306 320 302 295 312 350 210 205 230 231 234 243 261 280 292 309 306 302 304 294 273 255 250 256 255 208 227 222 224 231 235 240 257
349 23 63 47 73 46 4 331 290 275 333 16 11 356 12 354 329 262 309 316 270 252 249 294 330 353 337 88 273 281 262 234 254 268 268 280 286 293 305 307 303 294 282 275 270 263 265 269 271 267 251 239 243 254
23 33 53 78 65 15 352 17 359 30 54 46 42 359 166 170 59 19 140 209 215 228 274 298 302 296 258 255 273 273 257 278 279 268 264 263 273 279 286 287 289 301 307 308 298 287 280 268 257 246 250 252 273 270
41 38 57 75 57 36 6 329 39 82 53 67 43 32 39 29 57 26 56 231 284 294 291 291 284 282 274 265 264 279 279 277 290 284 272 266 264 272 283 271 259 279 302 304 302 298 289 278 268 261 254 255 257 256